Weather History for KO22 - May, 2014

Change the Weather History Date:

Saturday, May 3, 2014

  Actual Average (KMOD) Record (KMOD)
Temperature  
Mean Temperature 60 °F -  
Max Temperature 75 °F 80 °F 97 °F (1947)
Min Temperature 46 °F 53 °F 41 °F (1949)
Degree Days  
Heating Degree Days 4 2  
Month to date heating degree days 6  
Since 1 July heating degree days 2140  
Cooling Degree Days 0 3  
Month to date cooling degree days 9  
Year to date cooling degree days 53  
Growing Degree Days 10 (Base 50)    
Moisture  
Dew Point 42 °F    
Average Humidity 54    
Maximum Humidity 76    
Minimum Humidity 29    
Precipitation  
Precipitation 0.00 in 0.02 in 0.39 in (1956)
Month to date precipitation 0.08  
Year to date precipitation 8.08  
Snow  
Snow 0.00 in - - ()
Month to date snowfall  
Since 1 July snowfall  
Snow Depth -    
Sea Level Pressure  
Sea Level Pressure 30.00 in    
Wind  
Wind Speed 3 mph (SW)    
Max Wind Speed 7 mph    
Max Gust Speed -    
Visibility 10 miles    
Events      
T = Trace of Precipitation, MM = Missing Value Source: NWS Daily Summary

Daily Weather History Graph

Daily Weather History Graph

Search for Another Location

Airport or City:

Trip Planner

Search our weather history database for the weather conditions in past years. The results will help you decide how hot, cold, wet, or windy it might be!

Date:

Astronomy

May. 03, 2014 Rise Set
Actual Time 6:03 AM PDT 7:54 PM PDT
Civil Twilight 5:34 AM PDT 8:23 PM PDT
Nautical Twilight 4:59 AM PDT 8:57 PM PDT
Astronomical Twilight 4:22 AM PDT 9:35 PM PDT
Moon 9:38 AM PDT (5/3) No Moon Set
Length of Visible Light 14h 48m
Length of Day
13h 51m
Waxing Crescent, 20% of the Moon is Illuminated
May 3
Waxing Crescent
May 6
First Quarter
May 14
Full
May 21
Last Quarter
May 28
New

Hourly Weather History & Observations

Time (PDT) Temp. Windchill Dew Point Humidity Pressure Visibility Wind Dir Wind Speed Gust Speed Precip Events Conditions
12:15 AM 50.0 °F - 41.0 °F 71% 30.05 in 10.0 mi NE 3.5 mph - N/A   Clear
12:35 AM 50.0 °F - 41.0 °F 71% 30.05 in 10.0 mi NNE 3.5 mph - N/A   Clear
12:55 AM 50.0 °F - 41.0 °F 71% 30.05 in 10.0 mi NE 4.6 mph - N/A   Clear
1:15 AM 48.2 °F - 41.0 °F 76% 30.05 in 10.0 mi Calm Calm - N/A   Clear
1:35 AM 48.2 °F - 41.0 °F 76% 30.04 in 10.0 mi Calm Calm - N/A   Clear
1:55 AM 48.2 °F - 39.2 °F 71% 30.04 in 10.0 mi NE 3.5 mph - N/A   Clear
2:15 AM 50.0 °F - 39.2 °F 66% 30.03 in 10.0 mi NNE 4.6 mph - N/A   Partly Cloudy
2:55 AM 50.0 °F - 37.4 °F 62% 30.03 in 10.0 mi Calm Calm - N/A   Clear
3:15 AM 48.2 °F - 37.4 °F 66% 30.02 in 10.0 mi Calm Calm - N/A   Partly Cloudy
3:35 AM 48.2 °F - 37.4 °F 66% 30.02 in 10.0 mi Calm Calm - N/A   Clear
3:55 AM 48.2 °F - 39.2 °F 71% 30.02 in 10.0 mi NE 4.6 mph - N/A   Clear
4:15 AM 46.4 °F - 37.4 °F 71% 30.02 in 10.0 mi Calm Calm - N/A   Clear
4:35 AM 46.4 °F 45.2 °F 37.4 °F 71% 30.01 in 10.0 mi SW 3.5 mph - N/A   Clear
4:55 AM 46.4 °F - 39.2 °F 76% 30.01 in 10.0 mi Calm Calm - N/A   Clear
5:15 AM 46.4 °F - 39.2 °F 76% 30.01 in 10.0 mi Calm Calm - N/A   Clear
5:35 AM 46.4 °F - 37.4 °F 71% 30.01 in 10.0 mi Calm Calm - N/A   Clear
5:55 AM 46.4 °F - 39.2 °F 76% 30.01 in 10.0 mi Calm Calm - N/A   Clear
6:15 AM 46.4 °F - 39.2 °F 76% 30.01 in 10.0 mi Calm Calm - N/A   Clear
6:35 AM 46.4 °F 44.3 °F 39.2 °F 76% 30.01 in 10.0 mi NE 4.6 mph - N/A   Clear
6:55 AM 50.0 °F - 41.0 °F 71% 30.01 in 10.0 mi Calm Calm - N/A   Clear
7:15 AM 55.4 °F - 41.0 °F 58% 30.02 in 10.0 mi Calm Calm - N/A   Clear
7:35 AM 57.2 °F - 41.0 °F 55% 30.01 in 10.0 mi Calm Calm - N/A   Clear
7:55 AM 60.8 °F - 39.2 °F 45% 30.01 in 10.0 mi Calm Calm - N/A   Clear
8:15 AM 64.4 °F - 39.2 °F 40% 30.02 in 10.0 mi WNW 3.5 mph - N/A   Clear
8:35 AM 66.2 °F - 39.2 °F 37% 30.02 in 10.0 mi West 6.9 mph - N/A   Clear
8:55 AM 66.2 °F - 39.2 °F 37% 30.01 in 10.0 mi West 3.5 mph - N/A   Clear
9:15 AM 66.2 °F - 44.6 °F 46% 30.01 in 10.0 mi Calm Calm - N/A   Clear
9:35 AM 68.0 °F - 46.4 °F 46% 30.01 in 10.0 mi SW 6.9 mph - N/A   Clear
9:55 AM 69.8 °F - 48.2 °F 46% 30.01 in 10.0 mi WSW 5.8 mph - N/A   Clear
10:15 AM 69.8 °F - 48.2 °F 46% 30.01 in 10.0 mi SW 5.8 mph - N/A   Clear
10:35 AM 68.0 °F - 48.2 °F 49% 30.01 in 10.0 mi SSW 5.8 mph - N/A   Clear
10:55 AM 69.8 °F - 48.2 °F 46% 30.01 in 10.0 mi SSW 6.9 mph - N/A   Clear
11:15 AM 71.6 °F - 48.2 °F 43% 30.01 in 10.0 mi SW 4.6 mph - N/A   Clear
11:35 AM 71.6 °F - 46.4 °F 41% 30.01 in 10.0 mi South 5.8 mph - N/A   Clear
11:55 AM 71.6 °F - 46.4 °F 41% 30.00 in 10.0 mi SSW 3.5 mph - N/A   Clear
12:15 PM 73.4 °F - 48.2 °F 41% 30.00 in 10.0 mi South 6.9 mph - N/A   Clear
12:55 PM 73.4 °F - 46.4 °F 38% 30.00 in 10.0 mi SSW 4.6 mph - N/A   Clear
1:15 PM 73.4 °F - 46.4 °F 38% 30.00 in 10.0 mi South 5.8 mph - N/A   Clear
1:35 PM 75.2 °F - 44.6 °F 34% 30.00 in 10.0 mi SSE 3.5 mph - N/A   Clear
1:55 PM 73.4 °F - 46.4 °F 38% 30.00 in 10.0 mi SE 5.8 mph - N/A   Clear
2:15 PM 73.4 °F - 41.0 °F 31% 29.99 in 10.0 mi SSE 5.8 mph - N/A   Clear
2:35 PM 73.4 °F - 42.8 °F 33% 29.99 in 10.0 mi SSE 5.8 mph - N/A   Clear
2:55 PM 73.4 °F - 44.6 °F 36% 29.99 in 10.0 mi SSW 5.8 mph - N/A   Clear
3:15 PM 73.4 °F - 44.6 °F 36% 29.98 in 10.0 mi South 6.9 mph - N/A   Clear
3:35 PM 73.4 °F - 44.6 °F 36% 29.98 in 10.0 mi South 6.9 mph - N/A   Clear
3:55 PM 71.6 °F - 42.8 °F 35% 29.98 in 10.0 mi South 4.6 mph - N/A   Clear
4:15 PM 71.6 °F - 42.8 °F 35% 29.97 in 10.0 mi South 3.5 mph - N/A   Clear
4:35 PM 71.6 °F - 41.0 °F 33% 29.97 in 10.0 mi SE 4.6 mph - N/A   Clear
4:55 PM 71.6 °F - 41.0 °F 33% 29.97 in 10.0 mi ESE 4.6 mph - N/A   Clear
5:15 PM 71.6 °F - 41.0 °F 33% 29.97 in 10.0 mi Calm Calm - N/A   Clear
5:35 PM 71.6 °F - 37.4 °F 29% 29.96 in 10.0 mi South 4.6 mph - N/A   Clear
5:55 PM 71.6 °F - 39.2 °F 31% 29.96 in 10.0 mi SE 3.5 mph - N/A   Clear
6:15 PM 71.6 °F - 41.0 °F 33% 29.95 in 10.0 mi SW 3.5 mph - N/A   Clear
6:35 PM 69.8 °F - 44.6 °F 40% 29.95 in 10.0 mi SW 6.9 mph - N/A   Clear
6:55 PM 66.2 °F - 46.4 °F 49% 29.96 in 10.0 mi WSW 5.8 mph - N/A   Clear
7:15 PM 64.4 °F - 46.4 °F 52% 29.96 in 10.0 mi Calm Calm - N/A   Clear
7:35 PM 62.6 °F - 46.4 °F 55% 29.96 in 10.0 mi West 4.6 mph - N/A   Clear
7:55 PM 60.8 °F - 44.6 °F 55% 29.96 in 10.0 mi West 5.8 mph - N/A   Clear
8:15 PM 59.0 °F - 44.6 °F 59% 29.96 in 10.0 mi West 4.6 mph - N/A   Clear
8:35 PM 59.0 °F - 44.6 °F 59% 29.97 in 10.0 mi West 6.9 mph - N/A   Clear
8:55 PM 57.2 °F - 44.6 °F 63% 29.98 in 10.0 mi West 4.6 mph - N/A   Clear
9:15 PM 55.4 °F - 44.6 °F 67% 29.98 in 10.0 mi West 5.8 mph - N/A   Clear
9:35 PM 55.4 °F - 44.6 °F 67% 29.99 in 10.0 mi West 4.6 mph - N/A   Clear
9:55 PM 55.4 °F - 44.6 °F 67% 29.99 in 10.0 mi WNW 6.9 mph - N/A   Clear
10:15 PM 53.6 °F - 42.8 °F 67% 29.99 in 10.0 mi Calm Calm - N/A   Clear
10:35 PM 53.6 °F - 41.0 °F 62% 29.99 in 10.0 mi Calm Calm - N/A   Clear
10:55 PM 50.0 °F - 39.2 °F 66% 29.99 in 10.0 mi Calm Calm - N/A   Clear
11:15 PM 50.0 °F - 39.2 °F 66% 30.00 in 10.0 mi WNW 3.5 mph - N/A   Clear
11:35 PM 50.0 °F - 39.2 °F 66% 30.00 in 10.0 mi Calm Calm - N/A   Clear
11:55 PM 50.0 °F - 37.4 °F 62% 30.00 in 10.0 mi Calm Calm - N/A   Clear